User: anonymous   Login
Location: El Centro
(32.7920°N, 115.5620°W)
Time: 10:22:04
(UTC-07:00)
Language:

Hamsat - Orbit

View from above orbital plane
View from above orbital plane
View from above satellite
View from above satellite

Ground track
Ground track

The orbit data is extracted from the following two-line orbital elements,

1 28650U 05017B   15088.02313996  .00003889  00000-0  43764-3 0  9994
2 28650 097.5721 084.1519 0022738 299.2066 060.6877 14.87032482535532
Epoch (UTC): 29 March 2015 00:33:19
Eccentricity: 0.0022738
inclination: 97.5721°
perigee height: 591 km
apogee height: 623 km
right ascension of ascending node: 84.1519°
argument of perigee: 299.2066°
revolutions per day: 14.87032482
mean anomaly at epoch: 60.6877°
orbit number at epoch: 53553

The dashed part of the orbit path shows where the satellite is in the earth's shadow,  

DLR